Regional Weather Roundup
Issued by NWS

Home | Current Version | Previous Version | Text Only | Print | Product List | Glossary On
Versions: 1 2 3 4 5 6 7 8 9 10 11 12 13 14 15 16 17 18 19 20 21 22 23 24 25 26 27 28 29 30 31 32 33 34 35 36 37 38 39 40 41 42 43 44 45 46 47 48 49 50
000
ASUS45 KTFX 260904
RWRMT
MONTANA HOURLY WEATHER ROUNDUP
NATIONAL WEATHER SERVICE GREAT FALLS MT
204 AM MST MON JAN 26 2015

NOTE: "FAIR" INDICATES FEW OR NO CLOUDS BELOW 12000 FEET WITH NO
SIGNIFICANT WEATHER AND/OR OBSTRUCTIONS TO VISIBILITY.

* THESE STATIONS ARE NOT UNDER NWS QUALITY CONTROL. THEY DO NOT
   REPORT WEATHER SUCH AS PRECIPITATION OR FOG.

MTZ001>007-043-261000-
WEST OF THE DIVIDE
CITY           SKY/WX    TMP DP  RH WIND       PRES   REMARKS
KALISPELL      FOG       23  21  92 NE6       30.16S VSB 3/4  WCI  16
MISSOULA       CLEAR     30  27  89 CALM      30.24F
BUTTE          CLEAR     28  25  89 SE3       30.29S
MULLAN PASS    CLEAR     41  27  58 S12G18    30.20F
* ANACONDA     CLEAR     46  25  44 S13        N/A
* ESSEX        N/A       28  27  96 E1         N/A
* LINCOLN      N/A       26  24  92 N/A        N/A
* LOOKOUT PASS N/A       33  31  92 S3         N/A
* POLSON       N/A       39  29  67 SE1        N/A
* RONAN APT    CLEAR     32  32 100 N/A        N/A
* SEELEY LAKE  N/A       24  23  96 N3         N/A
* THOMP F APT  CLEAR     31  30  96 N5         N/A   WCI  26
$$

MTZ008-052>055-261000-
SOUTHWEST MONTANA
CITY           SKY/WX    TMP DP  RH WIND       PRES   REMARKS
BOZEMAN        MOCLDY    32  27  82 S3        30.25F
DILLON         CLEAR     36  27  70 S17       30.30F WCI  26
* W YELLOWSTON PTCLDY    29  28  96 N/A        N/A
* THREE FORKS  PTCLDY    39  36  89 SE5        N/A   WCI  35
* BOULDER HILL N/A       41  20  43 S9         N/A
* MONIDA PASS  N/A       25  25 100 E5         N/A   WCI  19
* RAYNOLDS PAS N/A       30  11  45 SE14G19    N/A   WCI  19
* WHITEHALL    N/A       38  27  65 NW5G10     N/A   WCI  34
* WISE RIVER   N/A       28  24  85 W3         N/A
$$

MTZ009>010-012-014-046-048-049-054-261000-
EAST SLOPES AND CENTRAL MONTANA
CITY           SKY/WX    TMP DP  RH WIND       PRES   REMARKS
CUT BANK       CLOUDY    46  28  50 W7        30.00F
GREAT FALLS    CLOUDY    54  27  35 SW16      30.07F
HELENA         PTCLDY    37  28  70 CALM      30.20F
MALMSTROM AFB  CLOUDY    54  27  35 SW21      30.07F
* DEARBORN     N/A       55  25  31 S15G20     N/A
* EAST GLACIER N/A       46  27  48 S14        N/A
* MONARCH      N/A       50  22  33 SW12G18    N/A
* PENDROY      N/A       45  28  51 W4         N/A
* ROGERS PASS  N/A       45  22  40 E6G12      N/A
* SWEET GRASS  N/A       48  28  46 W14        N/A
$$

MTZ011-013-016-021-035-040-045-047-050-051-261000-
NORTH CENTRAL MONTANA
CITY           SKY/WX    TMP DP  RH WIND       PRES   REMARKS
HAVRE          CLEAR     41  32  70 W12       29.98S
LEWISTOWN      PTCLDY    43  28  56 S5        30.07S
* N BAR RANCH  CLEAR     54  27  35 NW9       30.05S
* CHESTER      N/A       40  31  70 NE1        N/A
* DENTON       N/A       46  29  52 SW19       N/A
* GEYSER       N/A       54  26  34 W9         N/A
* JUDITH GAP   N/A       49  29  46 W17G24     N/A
* LOMA         N/A       48  31  52 SW17G22    N/A
$$

MTZ017>020-022>027-061-062-261000-
NORTHEAST MONTANA
CITY           SKY/WX    TMP DP  RH WIND       PRES   REMARKS
GLASGOW        CLEAR     36  30  79 NW8       29.94R WCI  30
GLENDIVE       PTCLDY    36  30  79 W7        29.95S WCI  30
JORDAN         CLEAR     36  30  79 NW10      29.97R WCI  29
SIDNEY         CLOUDY    36  32  85 CALM      29.94R
WOLF POINT     CLEAR     36  32  85 W9        29.94R WCI  29
* BEAVER HILL  N/A       39  33  79 SW12       N/A   WCI  32
* CIRCLE       N/A       38  33  82 W2         N/A
* LINDSAY DVD  N/A       44  33  65 W15G20     N/A
* NAVAJO       N/A       39  30  70 NW14G19    N/A   WCI  31
* SACO         N/A       34  30  85 S4         N/A
$$

MTZ028>042-056>058-261000-
SOUTHCENTRAL AND SOUTHEAST MONTANA
CITY           SKY/WX    TMP DP  RH WIND       PRES   REMARKS
BAKER          CLEAR     37  32  82 W14       29.95R WCI  28
BILLINGS       MOCLDY    48  28  46 W22       30.09S
LIVINGSTON     PTCLDY    48  27  44 SW30G38   30.19F
MILES CITY     PTCLDY    37  30  76 SW7       29.99S WCI  32
* LAUREL APT   MOCLDY    41  25  53 SW9        N/A
* ROUNDUP APT  PTCLDY    55  27  34 SW18G29    N/A
* ALZADA       N/A       40  31  70 SW9G14     N/A   WCI  34
* HYSHAM       N/A       48  27  44 W4         N/A
* LAME DEER    N/A       51  29  43 W15G20     N/A
* REED POINT   N/A       56  30  37 W15G21     N/A
* ROSCOE HILL  N/A       54  15  21 SW2G9      N/A
$$

REGIONAL REPORTS...DAKOTAS
CITY           SKY/WX    TMP DP  RH WIND       PRES   REMARKS
WILLISTON      MOCLDY    37  32  82 SW5       29.88R WCI  33
DICKINSON      MOCLDY    39  34  82 W13       29.86R WCI  31
CROSBY         PTCLDY    39  32  76 W16       29.84S WCI  30
WATFORD CITY   CLOUDY    39  34  82 W10       29.87R WCI  32
BISMARCK       PTCLDY    41  30  65 NW9       29.82R
GRAND FORKS    CLEAR     30  27  89 W8        29.61S WCI  22
FARGO          MOCLDY    30  27  89 SW12      29.66F WCI  20
BUFFALO SD     CLEAR     39  32  76 W15       29.88R WCI  31
RAPID CITY     PTCLDY    52  28  40 NW16      29.96S
$$

REGIONAL REPORTS...WYOMING/IDAHO/WASHINGTON
CITY           SKY/WX    TMP DP  RH WIND       PRES   REMARKS
GILLETTE       CLOUDY    45  28  51 W14       30.10R
SHERIDAN       MOCLDY    37  27  67 S5        30.10S WCI  33
CODY           CLOUDY    55  23  29 W7        30.19S
YELLOWSTONE LA MOCLDY    23  21  92 CALM      30.45F
SALMON         MOCLDY    18  16  92 CALM      30.41S VSB 1 1/4
MULLAN PASS    CLEAR     41  27  58 S12G18    30.20S
SAND POINT     FOG       34  34 100 CALM      30.17F VSB 1/2
SPOKANE        FOG       36  36 100 NE8       30.14S VSB M1/4 WCI  30

$$



USA.gov is the U.S. government's official web portal to all federal, state and local government web resources and services.